Location: Asperglen
(48.8607°N, 9.5283°E)
Time: 23:22:55
(UTC+00:00)

Daily predictions for brighter satellites

Satellite Brightness Start Highest point End
(mag) Time Altitude Azimuth Time Altitude Azimuth Time Altitude Azimuth
Meteor 1-28 Rocket 3.5 15:56:53 10° NNE 16:00:02 36° E 16:03:09 10° SSE
Cosmos 2026 Rocket 4.3 15:55:07 10° NNW 16:01:21 78° W 16:07:39 10° S
Cosmos 1544 Rocket 4.1 15:59:09 10° SSE 16:03:14 39° E 16:07:22 10° NNE
Cosmos 1484 Rocket 2.4 16:00:30 10° SSE 16:04:00 71° ENE 16:07:30 10° N
Cosmos 1697 Rocket 4.1 16:00:56 10° SE 16:04:38 18° E 16:08:22 10° ENE
NOSS 2-2 (E) 3.5 16:01:52 10° SSW 16:05:04 37° SE 16:07:55 10° ENE
BREEZE M DEB (TANK) 4.2 15:48:35 10° WNW 16:06:44 83° SSW 16:11:06 10° ESE
Intercosmos 24 3.7 16:05:15 10° N 16:09:10 59° ENE 16:12:39 10° SSE
Cosmos 1634 Rocket 4.0 16:03:06 10° S 16:09:17 80° E 16:15:28 10° N
Cosmos 405 Rocket 2.2 16:06:05 10° N 16:09:22 70° ENE 16:12:34 10° SSE
Lacrosse 5 rocket 1.7 16:09:08 10° WSW 16:12:47 47° NNW 16:16:22 10° NE
Cosmos 1461 4.1 16:14:11 10° S 16:17:18 23° ESE 16:20:09 12° ENE
CENTAUR R/B 3.0 16:11:47 10° WSW 16:17:29 58° NW 16:24:43 10° NE
Meteor 1-20 Rocket 4.4 16:15:24 10° N 16:20:38 45° ENE 16:25:51 10° SE
Cosmos 1455 Rocket 4.3 16:17:31 10° SSW 16:21:38 42° WNW 16:25:49 10° N
Cosmos 1602 Rocket 3.8 16:19:06 10° N 16:23:21 46° ENE 16:27:32 10° SSE
Cosmos 2279 Rocket 4.0 16:17:42 10° S 16:23:52 72° E 16:30:07 10° NNE
Cosmos 1570 Rocket 4.4 16:21:29 10° NNW 16:26:50 72° WSW 16:32:06 10° SSE
SMAP 3.0 16:25:38 10° SSE 16:30:15 69° ENE 16:34:54 10° N
Cosmos 1656 3.7 16:26:04 10° SSW 16:31:39 77° ESE 16:37:22 10° NNE
UNK 3.8 16:28:24 10° NNE 16:32:57 59° ESE 16:37:26 10° S
YAOGAN 1 3.8 16:31:18 10° ESE 16:34:18 19° ENE 16:37:19 10° NNE
Cosmos 2228 3.6 16:31:03 10° SSW 16:35:13 57° WNW 16:39:25 10° N
NOSS 2-2 (C) 3.8 16:32:36 10° WSW 16:35:35 37° NW 16:38:06 12° NNE
Landsat 7 3.8 16:31:10 10° SSE 16:35:44 60° ENE 16:40:21 10° N
SAR-Lupe-4 3.6 16:32:36 10° SSE 16:36:03 51° ENE 16:39:32 10° N
Cosmos 1867 3.7 16:30:59 10° NNW 16:36:22 54° NE 16:41:42 10° ESE
Cosmos 1486 Rocket 4.0 16:31:34 10° S 16:36:43 66° ESE 16:41:55 10° NNE
Cosmos 2297 Rocket 2.2 16:34:41 10° NNW 16:40:24 88° ENE 16:46:04 10° SSE
USA 290 2.1 16:37:09 10° NNW 16:40:26 80° ENE 16:43:41 10° SSE
USA 215 3.8 16:35:28 14° ENE 16:40:49 44° N 16:46:57 10° WNW
Cosmos 2180 Rocket 4.4 16:35:21 10° S 16:41:24 69° E 16:47:32 10° NNE
Cosmos 773 Rocket 4.3 16:38:27 10° NNW 16:43:39 72° WSW 16:48:51 10° SSE
SAR-Lupe-1 4.1 16:41:34 10° SSE 16:45:06 57° ENE 16:48:40 10° N
Cosmos 1782 2.7 16:42:01 10° SSW 16:45:36 74° W 16:49:13 10° N
IRIDIUM 106 4.3 16:41:46 10° N 16:46:59 69° E 16:52:11 10° SSE
ATLAS CENTAUR R/B 1.9 16:44:14 10° NW 16:47:22 45° WSW 16:50:23 10° SSE
CZ-4C R/B 2.9 16:41:33 10° NW 16:48:23 78° NE 16:56:58 10° SE
Cosmos 1607 4.0 16:43:24 10° NW 16:49:39 87° SW 16:55:58 10° SE
Cosmos 1733 3.9 16:48:40 10° NW 16:50:00 21° W 16:51:18 10° SSW
CZ-2D R/B 2.6 16:48:29 10° SSE 16:51:37 74° ENE 16:54:46 10° N
IRS-P3 4.1 16:49:19 10° SSE 16:54:33 65° ENE 16:59:50 10° N
Lacrosse 4 Rocket 3.5 16:52:32 10° W 16:55:31 19° NW 16:58:30 10° N
Meteor 1-25 Rocket 4.2 16:50:13 10° N 16:56:03 67° ENE 17:01:47 10° SSE
ARIANE 5 R/B 2.5 16:51:15 10° SSE 16:56:19 89° WSW 17:01:29 10° NNW
Cosmos 990 Rocket 4.4 16:51:58 10° S 16:56:41 39° ESE 16:59:48 19° NE
Cosmos 2219 4.1 16:52:04 10° NNW 16:57:01 29° NE 16:59:37 20° E
Cosmos 1825 Rocket 3.6 16:52:53 10° N 16:57:09 51° ENE 17:01:21 10° SSE
NOSS 2-3 (E) 4.4 16:55:58 10° S 16:58:53 22° ESE 16:59:21 22° ESE
Cosmos 2266 Rocket 3.9 16:53:21 10° N 16:59:34 83° E 17:05:38 10° S
NOSS 2-3 (D) 4.5 16:57:59 10° S 17:00:53 22° ESE 17:01:12 22° ESE
Cosmos 2098 Rocket 3.4 16:58:00 10° SSW 17:02:01 66° WNW 17:06:49 10° N
Meteor 1-5 Rocket 4.2 16:58:20 10° N 17:03:32 50° ENE 17:08:48 10° SSE
Cosmos 2151 3.2 17:00:36 10° NNW 17:04:45 70° W 17:08:53 10° S
Cosmos 1743 3.5 17:02:15 10° NNW 17:05:23 44° W 17:08:28 10° SSW
SPOT 1/Viking Rocket 3.6 17:01:12 10° SSE 17:06:17 56° ENE 17:11:22 10° N
Cosmos 1980 Rocket 3.1 17:02:20 10° SSE 17:06:54 26° ESE 17:08:00 24° E
Cosmos 1844 Rocket 4.3 17:07:49 10° N 17:10:59 16° NNE 17:10:59 16° NNE
SL-16 R/B 3.6 17:09:44 10° N 17:15:33 43° WNW 17:21:20 10° SW
Cosmos 2058 Rocket 4.2 17:11:59 10° SSE 17:14:42 25° ESE 17:14:42 25° ESE
Cosmos 2263 Rocket 2.3 17:13:14 10° NNW 17:18:46 50° NE 17:23:09 16° SE
NOSS 3-2 (C) 3.1 17:14:22 10° SW 17:19:26 88° SE 17:23:02 25° NE
NOSS 3-2 (A) 3.9 17:14:45 10° WSW 17:19:47 48° NW 17:24:05 19° NNE
CZ-4 R/B 4.2 17:19:13 10° SSE 17:23:09 80° ENE 17:27:07 10° N
GEOS 3 Rocket 4.2 17:19:36 19° NNE 17:23:25 56° NW 17:28:39 10° WSW
MOS 1 Rocket 3.7 17:18:44 10° S 17:23:36 72° W 17:28:46 10° NNW
BREEZE M DEB (TANK) 2.7 17:23:41 10° WSW 17:25:20 39° SSW 17:25:20 39° SSW
Cosmos 1076 Rocket 3.4 17:22:13 10° N 17:26:31 66° ENE 17:30:48 10° SSE
Cosmos 1933 3.3 17:24:20 10° SSW 17:28:09 75° W 17:30:45 20° N
Cosmos 2084 Rocket 4.2 17:27:20 10° NW 17:31:26 52° SW 17:35:31 10° SSE
Cosmos 2227 Rocket 2.2 17:25:53 10° NNW 17:31:34 85° WSW 17:37:13 10° SSE
Cosmos 1606 Rocket 3.6 17:27:13 10° SSW 17:31:37 80° W 17:35:23 14° N
Cosmos 1538 Rocket 4.0 17:27:18 10° NNW 17:32:33 59° ENE 17:36:28 18° SE
PSLV R/B 3.3 17:36:04 60° E 17:36:15 60° ENE 17:40:15 10° N
CZ-2D R/B 3.3 17:32:49 10° SSE 17:37:02 86° ENE 17:41:13 10° NNW
COSMO-SKYMED 1 2.6 17:39:14 51° SE 17:39:14 51° SE 17:42:50 10° S
Meteor 2-2 Rocket 4.5 17:35:04 10° SSE 17:40:21 43° E 17:40:35 43° E
SL-19 R/B 4.1 17:35:22 10° SSE 17:40:41 71° ENE 17:46:20 10° NNW
Resurs 1-3 3.4 17:36:46 10° SSE 17:41:03 76° ENE 17:45:21 10° N
Cosmos 1244 Rocket 4.5 17:35:37 10° N 17:41:49 56° ENE 17:47:54 10° SSE
BREEZE-M DEB (TANK) 3.9 17:40:16 10° W 17:43:55 87° SSW 17:48:33 30° ESE
Meteor 2-20 4.3 17:41:06 10° S 17:47:15 80° E 17:53:26 10° NNE
Cosmos 1697 Rocket 2.7 17:42:17 10° SSW 17:47:53 79° WNW 17:50:44 31° NNE
Lacrosse 5 rocket 2.8 17:47:25 10° WNW 17:49:58 22° NNW 17:49:58 22° NNW
Cosmos 1354 Rocket 4.3 17:45:24 10° SSW 17:50:38 67° WNW 17:53:34 26° NNE
BREEZE-M DEB (TANK) 4.2 17:49:21 10° WNW 17:53:12 69° NNE 17:57:03 37° E
Cosmos 1461 3.5 17:50:04 10° WSW 17:53:50 45° NW 17:54:18 43° NNW
Spot 4 Rocket 4.1 17:49:42 10° SSE 17:54:48 78° WSW 17:59:57 10° NNW
IRAS Rocket 4.1 17:50:28 10° SSE 17:55:58 90° E 18:01:29 10° NNW
Cosmos 1726 Rocket 4.1 17:52:20 10° SSW 17:56:56 61° WNW 17:59:49 22° N
SL-08 R/B 4.4 17:53:50 10° N 18:00:07 64° ENE 18:06:24 10° SSE
Cosmos 1655 Rocket 4.3 17:54:38 10° NNW 18:00:49 66° W 18:06:57 10° S
SKYMED 2 4.0 17:59:36 34° N 18:01:16 61° WNW 18:05:33 10° SSW
Gbstr 26 Del rocket 3.4 17:59:38 10° WSW 18:02:38 49° SW 18:02:38 49° SW
Cosmos 1898 Rocket 4.2 17:59:54 10° S 18:03:17 38° SSE 18:03:17 38° SSE
Meteor 2-10 4.1 18:02:47 10° NNW 18:08:08 79° W 18:13:39 10° S
Meteor 2-20 Rocket 4.3 18:03:07 10° S 18:09:23 83° E 18:12:30 31° NNE
CENTAUR R/B 4.1 18:04:06 10° WNW 18:09:43 28° NNW 18:12:27 23° NNE
YAOGAN 1 3.2 18:05:38 10° S 18:09:48 53° W 18:13:59 10° NNW
USA 281 4.4 18:17:15 25° NNE 18:17:15 25° NNE 18:20:45 10° NNW
Cosmos 2082 3.7 18:11:53 10° NNW 18:17:03 68° NNE 18:17:03 68° NNE
Meteor 1-26 Rocket 4.0 18:12:59 10° S 18:18:03 79° S 18:18:03 79° S
USA 238 DEB 3.3 18:13:26 10° SSW 18:19:32 77° SE 18:19:57 73° E
USA 238 3.3 18:13:32 10° SSW 18:19:38 76° SE 18:20:02 73° E
USA 215 3.3 18:22:49 57° NE 18:23:14 58° NNE 18:29:39 10° NW
Cosmos 372 Rocket 4.3 18:22:20 10° SSW 18:26:27 57° SSW 18:26:27 57° SSW
Aureole 1 Rocket 4.0 18:24:13 10° SSW 18:27:16 47° SW 18:27:16 47° SW
Cosmos 2219 3.5 18:35:54 10° NNW 18:41:35 64° WSW 18:41:35 64° WSW
Cosmos 1980 Rocket 2.8 18:44:56 10° SW 18:49:48 54° W 18:49:48 54° W
Cosmos 2263 Rocket 3.8 18:57:31 10° NW 19:02:27 31° WSW 19:04:58 22° SSW
